TimePST,TemperatureF,Dew PointF,Humidity,Sea Level PressureIn,VisibilityMPH,Wind Direction,Wind SpeedMPH,Gust SpeedMPH,PrecipitationIn,Events,Conditions,WindDirDegrees,DateUTC
12:53 AM,37.9,34.0,86,30.19,10.0,NE,4.6,-,N/A,,Clear,40,2013-01-03 08:53:00
1:53 AM,39.9,36.0,86,30.19,10.0,Calm,Calm,-,N/A,,Clear,0,2013-01-03 09:53:00
2:53 AM,36.0,34.0,93,30.19,10.0,ESE,3.5,-,N/A,,Clear,110,2013-01-03 10:53:00
3:53 AM,41.0,37.9,89,30.19,10.0,ESE,4.6,-,N/A,,Clear,110,2013-01-03 11:53:00
4:53 AM,36.0,34.0,93,30.19,10.0,NNE,3.5,-,N/A,,Clear,30,2013-01-03 12:53:00
5:53 AM,36.0,34.0,93,30.19,10.0,ENE,4.6,-,N/A,,Partly Cloudy,60,2013-01-03 13:53:00
6:53 AM,37.9,35.1,89,30.22,10.0,Calm,Calm,-,N/A,,Mostly Cloudy,0,2013-01-03 14:53:00
7:53 AM,37.0,34.0,89,30.23,10.0,Calm,Calm,-,N/A,,Scattered Clouds,0,2013-01-03 15:53:00
8:53 AM,41.0,37.0,86,30.25,10.0,Calm,Calm,-,N/A,,Mostly Cloudy,0,2013-01-03 16:53:00
9:53 AM,45.0,39.0,80,30.27,10.0,Calm,Calm,-,N/A,,Mostly Cloudy,0,2013-01-03 17:53:00
10:53 AM,48.0,39.9,74,30.26,10.0,Calm,Calm,-,N/A,,Scattered Clouds,0,2013-01-03 18:53:00
11:53 AM,50.0,41.0,71,30.25,10.0,West,6.9,-,N/A,,Scattered Clouds,260,2013-01-03 19:53:00
12:53 PM,52.0,41.0,66,30.23,10.0,West,8.1,-,N/A,,Scattered Clouds,280,2013-01-03 20:53:00
1:53 PM,53.1,39.9,61,30.22,10.0,West,9.2,-,N/A,,Scattered Clouds,280,2013-01-03 21:53:00
2:53 PM,55.0,39.9,57,30.22,10.0,WNW,6.9,-,N/A,,Scattered Clouds,290,2013-01-03 22:53:00
3:53 PM,53.1,43.0,69,30.23,10.0,SW,5.8,-,N/A,,Scattered Clouds,230,2013-01-03 23:53:00
4:53 PM,52.0,45.0,77,30.24,10.0,NW,6.9,-,N/A,,Scattered Clouds,310,2013-01-04 00:53:00
5:53 PM,48.9,44.1,83,30.25,10.0,Calm,Calm,-,N/A,,Scattered Clouds,0,2013-01-04 01:53:00
6:53 PM,50.0,43.0,77,30.26,10.0,NW,3.5,-,N/A,,Clear,320,2013-01-04 02:53:00
7:53 PM,46.9,42.1,83,30.27,10.0,Calm,Calm,-,N/A,,Clear,0,2013-01-04 03:53:00
8:53 PM,46.9,39.0,74,30.27,10.0,SSE,3.5,-,N/A,,Clear,160,2013-01-04 04:53:00
9:53 PM,44.1,37.9,79,30.28,10.0,Calm,Calm,-,N/A,,Clear,0,2013-01-04 05:53:00
10:53 PM,43.0,39.0,86,30.29,10.0,NE,4.6,-,N/A,,Clear,50,2013-01-04 06:53:00
11:53 PM,44.1,39.0,82,30.28,10.0,Calm,Calm,-,N/A,,Clear,0,2013-01-04 07:53:00